Tracking 25195 objects as of 20-Jan-2022
HD Live streaming from Space Station
objects crossing your sky now

STARLINK-3100

Track STARLINK-3100 now!
10-day predictions
STARLINK-3100 is classified as:


NORAD ID: 49144
Int'l Code: 2021-082Q
Perigee: 576.7 km
Apogee: 581.5 km
Inclination: 70.0 °
Period: 96.1 minutes
Semi major axis: 6950 km
RCS: Unknown
Launch date: September 14, 2021
Source: United States (US)
Launch site: AIR FORCE WESTERN TEST RANGE (AFWTR)
aabbcc
Your satellite tracking list
Your tracking list is empty




NASA's NSSDC Master Catalog

Two Line Element Set (TLE):
1 49144U 21082Q   22019.91667824 -.00042444  00000-0 -35677-2 0  9992
2 49144  70.0015 141.1276 0003431 277.1412  33.2048 14.98363943  3568
Source of the keplerian elements: AFSPC